Location: Glion
(46.4330°N, 6.9246°E)
Time: 18:28:49
(UTC+00:00)

MetOp-A - Visible Passes

Search period start: 21 June 2021 00:00
Search period end: 01 July 2021 00:00
Orbit: 820 x 821 km, 98.5° (Epoch: 21 June)

Date Brightness Start Highest point End Pass type
(mag) Time Alt. Az. Time Alt. Az. Time Alt. Az.
24 Jun 6.7 20:31:59 10° SW 20:35:09 16° W 20:38:20 10° NW visible
25 Jun 6.3 20:09:57 10° SW 20:14:11 23° W 20:18:26 10° NW visible
28 Jun 7.0 20:51:31 10° W 20:52:39 11° W 20:53:48 10° WNW visible
29 Jun 6.7 20:28:16 10° SW 20:31:37 17° W 20:35:00 10° NW visible
30 Jun 6.3 20:06:20 10° SSW 20:10:39 25° W 20:15:02 10° NW visible
